sat.trackr.live / text

‹ back to catalog

STARLINK-3155

NORAD 49739 · 2021-115R

PAYLOAD ACTIVE UNKNOWN

§ Identity

Operator
Country
US
Launch date
2021-12-02
Launch site
AFETR
Launch vehicle
Mass (kg)
RCS (m²)

Purposes: comms

External: N2YO · Heavens-Above · Gunter

§ Orbital elements

Epoch: 2026-05-24T12:06:17.275968Z

Period
95.44 min
Inclination
53.2155°
Eccentricity
0.0001245
Mean motion
15.08837378 rev/d
Perigee alt
538.9 km
Apogee alt
540.6 km
Semi-major
6,917.9 km
B*
4.7666e-5
RAAN
178.7763°
Arg perigee
78.4903°
Mean anomaly
281.6229°
Rev number
24,683

§ Raw data

STARLINK-31551 49739U 21115R   26144.50436662  .00000471  00000+0  47666-4 0  99952 49739  53.2155 178.7763 0001245  78.4903 281.6229 15.08837378246830

JSON: /api/v1/satellites/49739 · /tle

For live sub-satellite position, see the globe view (requires WebGL).

§ Visibility from observer

Set your observer location to see the next 7 days of passes ≥ 10°. The values pass through the URL so the page stays shareable.

No JS? Fill the form by hand. The geolocation button needs JavaScript.